Fort Bragg, NC

2:34 PM EDT on October 22, 2017 (GMT -0400)
Simmons Army Air Field

Weather History for KFBG - February, 2013

Change the Weather History Date:

Thursday, February 7, 2013

  Actual Average Record
Temperature  
Mean Temperature 45 °F -  
Max Temperature 51 °F 54 °F 77 °F (1999)
Min Temperature 39 °F 34 °F 27 °F (2014)
Degree Days  
Heating Degree Days 20    
Moisture  
Dew Point 43 °F    
Average Humidity 89    
Maximum Humidity 100    
Minimum Humidity 65    
Precipitation  
Precipitation 0.40 in - - ()
Sea Level Pressure  
Sea Level Pressure 30.12 in    
Wind  
Wind Speed 8 mph (NE)    
Max Wind Speed 16 mph    
Max Gust Speed 28 mph    
Visibility 9 miles    
Events Rain    
Averages and records for this station are not official NWS values.
T = Trace of Precipitation, MM = Missing Value Source: NWS Daily Summary

Daily Weather History Graph

Daily Weather History Graph

Search for Another Location

Airport or City:

Trip Planner

Search our weather history database for the weather conditions in past years. The results will help you decide how hot, cold, wet, or windy it might be!

Date:

Astronomy

Feb. 07, 2013 Rise Set
Actual Time 7:09 AM EST 5:50 PM EST
Civil Twilight 6:43 AM EST 6:17 PM EST
Nautical Twilight 6:13 AM EST 6:47 PM EST
Astronomical Twilight 5:43 AM EST 7:16 PM EST
Moon 4:44 AM EST (2/7) 3:16 PM EST (2/7)
Length of Visible Light 11h 33m
Length of Day
10h 41m
Waning Crescent, 9% of the Moon is Illuminated
Feb 7
Waning Crescent
Feb 10
New
Feb 17
First Quarter
Feb 25
Full
Mar 4
Last Quarter

Hourly Weather History & Observations

Time (EST) Temp. Windchill Dew Point Humidity Pressure Visibility Wind Dir Wind Speed Gust Speed Precip Events Conditions
12:55 AM 43.5 °F 38.9 °F 32.4 °F 65% 30.25 in 10.0 mi ENE 8.1 mph - N/A   Clear
1:55 AM 42.4 °F 39.6 °F 36.7 °F 80% 30.25 in 10.0 mi NE 4.6 mph - N/A   Clear
2:55 AM 41.2 °F 38.2 °F 37.9 °F 88% 30.25 in 10.0 mi NE 4.6 mph - N/A   Clear
3:55 AM 40.8 °F 36.9 °F 37.8 °F 89% 30.25 in 10.0 mi NE 5.8 mph - N/A   Clear
4:55 AM 40.1 °F 36.1 °F 37.4 °F 90% 30.26 in 10.0 mi NE 5.8 mph - N/A   Clear
5:55 AM 40.1 °F 36.9 °F 37.9 °F 92% 30.27 in 10.0 mi NE 4.6 mph - N/A   Clear
6:55 AM 40.3 °F 37.1 °F 38.1 °F 92% 30.28 in 10.0 mi NNE 4.6 mph - N/A   Clear
7:55 AM 39.7 °F 35.6 °F 37.8 °F 93% 30.28 in 10.0 mi NE 5.8 mph - N/A   Clear
8:55 AM 41.9 °F 38.2 °F 37.9 °F 86% 30.29 in 10.0 mi NE 5.8 mph - N/A   Scattered Clouds
9:55 AM 44.4 °F 40.5 °F 38.5 °F 80% 30.29 in 10.0 mi NE 6.9 mph - N/A   Clear
10:55 AM 47.5 °F - 39.4 °F 73% 30.28 in 10.0 mi ENE 11.5 mph - N/A   Scattered Clouds
11:55 AM 49.8 °F - 40.5 °F 70% 30.23 in 10.0 mi NE 8.1 mph - N/A   Mostly Cloudy
12:55 PM 50.5 °F - 40.8 °F 69% 30.22 in 10.0 mi ENE 9.2 mph 21.9 mph N/A   Clear
1:55 PM 51.1 °F - 41.4 °F 69% 30.18 in 10.0 mi NE 6.9 mph - N/A   Clear
2:55 PM 50.4 °F - 41.0 °F 70% 30.17 in 10.0 mi NE 9.2 mph - N/A   Clear
3:55 PM 50.7 °F - 41.5 °F 71% 30.15 in 10.0 mi NNE 6.9 mph - N/A   Clear
4:35 PM 50.0 °F - 41.0 °F 71% 30.14 in 10.0 mi NNE 8.1 mph - N/A Rain Light Rain
4:55 PM 50.0 °F - 42.3 °F 75% 30.13 in 10.0 mi NNE 6.9 mph - 0.00 in Rain Light Rain
5:55 PM 47.7 °F - 44.2 °F 88% 30.12 in 10.0 mi NNE 6.9 mph - 0.02 in Rain Light Rain
6:01 PM 46.4 °F 42.4 °F 44.6 °F 93% 30.11 in 10.0 mi NNE 8.1 mph - N/A Rain Light Rain
6:15 PM 46.4 °F 42.4 °F 44.6 °F 93% 30.10 in 10.0 mi NNE 8.1 mph - N/A Rain Light Rain
6:55 PM 46.8 °F - 44.8 °F 93% 30.09 in 10.0 mi NNE 9.2 mph - 0.03 in Rain Light Rain
7:06 PM 46.4 °F 40.7 °F 44.6 °F 93% 30.08 in 10.0 mi NE 12.7 mph 19.6 mph N/A Rain Light Rain
7:27 PM 46.4 °F 42.4 °F 46.4 °F 100% 30.08 in 10.0 mi NE 8.1 mph - N/A Rain Light Rain
7:55 PM 47.1 °F - 46.0 °F 96% 30.07 in 8.0 mi ENE 11.5 mph 18.4 mph 0.02 in Rain Light Rain
8:36 PM 46.4 °F 40.4 °F 46.4 °F 100% 30.05 in 5.0 mi NE 13.8 mph - N/A Rain Light Rain
8:55 PM 46.6 °F - 46.0 °F 98% 30.04 in 6.0 mi NE 15.0 mph 20.7 mph 0.07 in Rain Light Rain
9:42 PM 46.4 °F 41.1 °F 46.4 °F 100% 30.01 in 5.0 mi NE 11.5 mph 19.6 mph N/A Rain Light Rain
9:55 PM 46.6 °F - 46.2 °F 99% 30.01 in 5.0 mi NE 15.0 mph - 0.04 in Rain Light Rain
10:18 PM 46.4 °F 39.8 °F 46.4 °F 100% 29.98 in 9.0 mi NE 16.1 mph 24.2 mph N/A Rain Light Rain
10:28 PM 46.4 °F 41.5 °F 46.4 °F 100% 29.97 in 10.0 mi NE 10.4 mph 21.9 mph N/A   Overcast
10:36 PM 46.4 °F 39.8 °F 46.4 °F 100% 29.96 in 10.0 mi NE 16.1 mph 20.7 mph N/A Rain Light Rain
10:55 PM 46.9 °F - 46.6 °F 99% 29.94 in 7.0 mi NE 13.8 mph 21.9 mph 0.05 in Rain Light Rain
11:00 PM 46.4 °F 40.4 °F 46.4 °F 100% 29.94 in 6.0 mi NE 13.8 mph 23.0 mph N/A Rain Rain
11:09 PM 46.4 °F 40.1 °F 46.4 °F 100% 29.93 in 7.0 mi NE 15.0 mph 21.9 mph N/A Rain Rain
11:17 PM 46.4 °F 39.8 °F 46.4 °F 100% 29.92 in 8.0 mi NE 16.1 mph 23.0 mph N/A Rain Light Rain
11:24 PM 46.4 °F 40.4 °F 46.4 °F 100% 29.93 in 6.0 mi NE 13.8 mph 20.7 mph N/A Rain Rain
11:55 PM 47.1 °F - 46.9 °F 99% 29.89 in 4.0 mi NE 15.0 mph 27.6 mph 0.17 in Rain Heavy Rain